Location: Alexandria
(38.8050°N, 77.0470°W)
Time: 22:36:41
(UTC-05:00)

Tiangong 2 - Pass Details

Date: 12 February 2018
Orbit: 384 x 389 km, 42.8° (Epoch: 24 February)

Event Time Altitude Azimuth Distance (km) Brightness Sun altitude
Rises 19:45:06 0° 268° (W) 2,258 6.4 -24.4°
Reaches altitude 10° 19:47:13 10° 275° (W) 1,405 5.0 -24.8°
Enters shadow 19:48:52 26° 291° (WNW) 804 3.3 -25.1°
